SFR141 FAPE-FACT

Flight info

Callsign SFR141
Flight time N/A
Altitude 28000
Route OKRAV UQ49 ESRUK UQ51 GETEN GETEN1A
Aircraft B738/M-SDE2E3FGHIRWXY/LB1

Departure

Time 2026-04-21 15:38
Airport Chief Dawid Stuurman International Airport (FAPE)

Arrival

Time N/A
Airport Cape Town International Airport (FACT)
Time Latitude Longitude Altitude Speed Heading
2026-04-21 15:14 -33.98457 25.61220 211 ft 0 kts 328°
2026-04-21 15:30 -33.98462 25.61223 216 ft 2 kts 328°
2026-04-21 15:30 -33.98476 25.61234 211 ft 2 kts 329°
2026-04-21 15:30 -33.98490 25.61244 217 ft 2 kts 333°
2026-04-21 15:31 -33.98506 25.61250 211 ft 2 kts 26°
2026-04-21 15:31 -33.98514 25.61241 212 ft 1 kts 59°
2026-04-21 15:31 -33.98514 25.61240 212 ft 0 kts 59°
2026-04-21 15:33 -33.98511 25.61247 211 ft 4 kts 58°
2026-04-21 15:33 -33.98493 25.61280 211 ft 10 kts 58°
2026-04-21 15:33 -33.98444 25.61380 216 ft 16 kts 65°
2026-04-21 15:34 -33.98394 25.61512 214 ft 19 kts 58°
2026-04-21 15:34 -33.98322 25.61651 213 ft 20 kts 58°
2026-04-21 15:34 -33.98249 25.61792 214 ft 20 kts 58°
2026-04-21 15:34 -33.98275 25.61911 217 ft 10 kts 147°
2026-04-21 15:35 -33.98281 25.61916 217 ft 0 kts 148°
2026-04-21 15:37 -33.98285 25.61919 217 ft 4 kts 148°
2026-04-21 15:37 -33.98340 25.61956 216 ft 13 kts 166°
2026-04-21 15:37 -33.98418 25.61874 211 ft 24 kts 238°
2026-04-21 15:37 -33.98641 25.61441 211 ft 96 kts 238°
2026-04-21 15:38 -33.99105 25.60542 233 ft 153 kts 238°
2026-04-21 15:38 -33.99689 25.59389 871 ft 163 kts 241°
2026-04-21 15:38 -34.00310 25.58289 1956 ft 148 kts 236°
2026-04-21 15:38 -34.00986 25.57282 2617 ft 169 kts 237°
2026-04-21 15:39 -34.01807 25.56113 2844 ft 195 kts 236°
2026-04-21 15:39 -34.02690 25.54804 3369 ft 205 kts 242°
2026-04-21 15:39 -34.03054 25.53094 3721 ft 223 kts 272°
2026-04-21 15:39 -34.02945 25.51201 4525 ft 228 kts 273°
2026-04-21 15:40 -34.02840 25.49286 5395 ft 231 kts 273°
2026-04-21 15:40 -34.02740 25.47332 6207 ft 236 kts 273°
2026-04-21 15:40 -34.02646 25.45339 6986 ft 240 kts 272°
2026-04-21 15:40 -34.02555 25.43317 7786 ft 243 kts 272°
2026-04-21 15:41 -34.02467 25.41275 8608 ft 246 kts 272°
2026-04-21 15:41 -34.02383 25.39228 9393 ft 249 kts 272°
2026-04-21 15:41 -34.02298 25.37126 10167 ft 253 kts 272°
2026-04-21 15:41 -34.02212 25.34935 10483 ft 274 kts 272°
2026-04-21 15:42 -34.02119 25.32542 10666 ft 297 kts 272°
2026-04-21 15:42 -34.02019 25.29964 10836 ft 319 kts 272°
2026-04-21 15:42 -34.01914 25.27222 11186 ft 333 kts 272°
2026-04-21 15:42 -34.01805 25.24409 11819 ft 338 kts 272°
2026-04-21 15:43 -34.01696 25.21578 12573 ft 340 kts 272°
2026-04-21 15:43 -34.01586 25.18721 13266 ft 343 kts 273°
2026-04-21 15:43 -34.01474 25.15835 13940 ft 346 kts 273°
2026-04-21 15:43 -34.01361 25.12930 14584 ft 348 kts 273°
2026-04-21 15:44 -34.01247 25.10015 15254 ft 349 kts 273°
2026-04-21 15:44 -34.01132 25.07086 15913 ft 351 kts 273°
2026-04-21 15:44 -34.01015 25.04141 16545 ft 353 kts 274°
2026-04-21 15:44 -34.00898 25.01179 17162 ft 355 kts 274°
2026-04-21 15:45 -34.00778 24.98196 17779 ft 357 kts 274°
2026-04-21 15:45 -34.00657 24.95195 18356 ft 360 kts 274°
2026-04-21 15:45 -34.00535 24.92173 18867 ft 362 kts 274°
2026-04-21 15:45 -34.00411 24.89136 19412 ft 363 kts 274°
2026-04-21 15:46 -34.00286 24.86091 19928 ft 365 kts 274°
2026-04-21 15:46 -34.00160 24.83026 20414 ft 368 kts 274°
2026-04-21 15:46 -34.00032 24.79934 20908 ft 369 kts 274°
2026-04-21 15:46 -33.99902 24.76841 21389 ft 372 kts 274°
2026-04-21 15:47 -33.99771 24.73712 21844 ft 374 kts 274°
2026-04-21 15:47 -33.99639 24.70581 22297 ft 376 kts 274°
2026-04-21 15:47 -33.99505 24.67417 22752 ft 378 kts 274°
2026-04-21 15:47 -33.99370 24.64251 23201 ft 380 kts 274°
2026-04-21 15:48 -33.99233 24.61061 23609 ft 383 kts 274°
2026-04-21 15:48 -33.99193 24.57843 23947 ft 385 kts 271°
2026-04-21 15:48 -33.99231 24.54607 24300 ft 387 kts 271°
2026-04-21 15:48 -33.99288 24.51398 24650 ft 389 kts 271°
2026-04-21 15:49 -33.99351 24.48135 24994 ft 390 kts 271°
2026-04-21 15:49 -33.99411 24.44855 25325 ft 392 kts 271°
2026-04-21 15:49 -33.99468 24.41558 25635 ft 395 kts 271°
2026-04-21 15:49 -33.99520 24.38246 25963 ft 396 kts 271°
2026-04-21 15:50 -33.99570 24.34925 26348 ft 396 kts 271°
2026-04-21 15:50 -33.99618 24.31619 26856 ft 393 kts 271°
2026-04-21 15:50 -33.99663 24.28330 27312 ft 391 kts 272°
2026-04-21 15:50 -33.99705 24.25064 27799 ft 389 kts 272°
2026-04-21 15:51 -33.99746 24.21821 28283 ft 387 kts 272°
2026-04-21 15:51 -33.99787 24.18583 28740 ft 385 kts 272°
2026-04-21 15:51 -33.99826 24.15358 29175 ft 384 kts 272°
2026-04-21 15:51 -33.99864 24.12140 29587 ft 384 kts 272°
2026-04-21 15:52 -33.99901 24.08921 29984 ft 384 kts 272°
2026-04-21 15:52 -33.99938 24.05690 29989 ft 387 kts 272°
2026-04-21 15:52 -34.00009 23.99218 30011 ft 383 kts 272°
2026-04-21 15:53 -34.00078 23.92809 30026 ft 382 kts 272°
2026-04-21 15:53 -34.00141 23.86402 30029 ft 383 kts 272°
2026-04-21 15:54 -34.00202 23.79995 30032 ft 383 kts 272°
2026-04-21 15:54 -34.00260 23.73573 30024 ft 383 kts 272°
2026-04-21 15:55 -34.00314 23.67146 30033 ft 383 kts 272°
2026-04-21 15:55 -34.00365 23.60720 30031 ft 383 kts 272°
2026-04-21 15:56 -34.00413 23.54294 30036 ft 383 kts 272°
2026-04-21 15:56 -34.00457 23.47871 30038 ft 383 kts 272°
2026-04-21 15:57 -34.00498 23.41445 30041 ft 383 kts 272°
2026-04-21 15:57 -34.00536 23.35072 30042 ft 383 kts 272°
2026-04-21 15:58 -34.00570 23.28637 30044 ft 383 kts 272°
2026-04-21 15:58 -34.00601 23.22217 30048 ft 383 kts 272°
2026-04-21 15:59 -34.00629 23.15783 30057 ft 384 kts 272°
2026-04-21 15:59 -34.00653 23.09341 30051 ft 385 kts 272°
2026-04-21 16:00 -34.00674 23.02897 30055 ft 385 kts 272°
2026-04-21 16:00 -34.00678 23.01803 30054 ft 385 kts 272°